Time,TemperatureF,DewpointF,PressureIn,WindDirection,WindDirectionDegrees,WindSpeedMPH,WindSpeedGustMPH,Humidity,HourlyPrecipIn,Conditions,Clouds,dailyrainin,SoftwareType,DateUTC
2012-12-24 00:03:00,37.0,36.5,29.77,ESE,112,0.0,0.0,98,0.00,,,0.00,WUHU21623XXSP,2012-12-24 08:03:00,
2012-12-24 00:08:00,37.0,36.5,29.77,ESE,112,0.0,0.0,98,0.00,,,0.00,WUHU21623XXSP,2012-12-24 08:08:00,
2012-12-24 00:13:00,37.0,36.2,29.77,ESE,112,0.0,0.0,97,0.00,,,0.00,WUHU21623XXSP,2012-12-24 08:13:00,
2012-12-24 00:18:00,36.9,36.0,29.78,ESE,112,0.0,0.0,97,0.00,,,0.00,WUHU21623XXSP,2012-12-24 08:18:00,
2012-12-24 00:23:00,36.9,36.3,29.78,ESE,112,0.0,0.0,98,0.00,,,0.00,WUHU21623XXSP,2012-12-24 08:23:00,
2012-12-24 00:28:00,36.9,36.0,29.79,SSE,157,0.0,0.0,97,0.00,,,0.00,WUHU21623XXSP,2012-12-24 08:28:00,
2012-12-24 00:33:00,36.7,35.9,29.79,SSE,157,0.0,0.0,97,0.00,,,0.00,WUHU21623XXSP,2012-12-24 08:33:00,
2012-12-24 00:38:00,36.7,35.9,29.79,SSE,157,0.0,0.0,97,0.00,,,0.00,WUHU21623XXSP,2012-12-24 08:38:00,
2012-12-24 00:43:00,36.7,35.9,29.80,SSE,157,0.0,0.0,97,0.00,,,0.00,WUHU21623XXSP,2012-12-24 08:43:00,
2012-12-24 00:48:00,36.7,35.9,29.80,SSE,157,0.0,0.0,97,0.00,,,0.00,WUHU21623XXSP,2012-12-24 08:48:00,
2012-12-24 00:53:00,36.5,35.7,29.80,SSE,157,0.0,0.0,97,0.00,,,0.00,WUHU21623XXSP,2012-12-24 08:53:00,
2012-12-24 00:58:00,36.5,35.7,29.80,SSE,157,0.0,0.0,97,0.00,,,0.00,WUHU21623XXSP,2012-12-24 08:58:00,
2012-12-24 01:03:00,36.5,35.7,29.80,SSE,157,0.0,0.0,97,0.00,,,0.00,WUHU21623XXSP,2012-12-24 09:03:00,
2012-12-24 01:08:00,36.3,35.5,29.80,SSE,157,0.0,0.0,97,0.00,,,0.00,WUHU21623XXSP,2012-12-24 09:08:00,
2012-12-24 01:13:00,36.3,35.5,29.80,SSE,157,0.0,0.0,97,0.00,,,0.00,WUHU21623XXSP,2012-12-24 09:13:00,
2012-12-24 01:18:00,36.3,35.5,29.81,SSE,157,0.0,0.0,97,0.00,,,0.00,WUHU21623XXSP,2012-12-24 09:18:00,
2012-12-24 01:23:00,36.1,35.3,29.81,SSE,157,0.0,0.0,97,0.00,,,0.00,WUHU21623XXSP,2012-12-24 09:23:00,
2012-12-24 01:28:00,36.1,35.3,29.81,NE,45,0.0,0.0,97,0.00,,,0.00,WUHU21623XXSP,2012-12-24 09:28:00,
2012-12-24 01:33:00,36.1,35.3,29.82,NE,45,0.0,0.0,97,0.00,,,0.00,WUHU21623XXSP,2012-12-24 09:33:00,
2012-12-24 01:38:00,36.0,35.3,29.82,NE,45,0.0,0.0,97,0.00,,,0.00,WUHU21623XXSP,2012-12-24 09:38:00,
2012-12-24 01:43:00,36.0,35.1,29.82,SE,135,0.0,0.0,97,0.00,,,0.00,WUHU21623XXSP,2012-12-24 09:43:00,
2012-12-24 01:48:00,36.0,35.1,29.82,SE,135,0.0,0.0,97,0.00,,,0.00,WUHU21623XXSP,2012-12-24 09:48:00,
2012-12-24 01:53:00,36.0,35.1,29.82,SE,135,0.0,0.0,97,0.00,,,0.00,WUHU21623XXSP,2012-12-24 09:53:00,
2012-12-24 01:58:00,36.0,35.1,29.83,ENE,67,0.0,0.0,97,0.00,,,0.00,WUHU21623XXSP,2012-12-24 09:58:00,
2012-12-24 02:03:00,36.0,35.1,29.83,ENE,67,0.0,0.0,97,0.00,,,0.00,WUHU21623XXSP,2012-12-24 10:03:00,
2012-12-24 02:08:00,35.8,35.0,29.83,ENE,67,0.0,0.0,97,0.00,,,0.00,WUHU21623XXSP,2012-12-24 10:08:00,
2012-12-24 02:13:00,36.0,35.0,29.84,ENE,67,0.0,0.0,97,0.00,,,0.00,WUHU21623XXSP,2012-12-24 10:13:00,
2012-12-24 02:18:00,35.8,35.0,29.84,ENE,67,0.0,0.0,97,0.00,,,0.00,WUHU21623XXSP,2012-12-24 10:18:00,
2012-12-24 02:23:00,36.0,35.0,29.84,ENE,67,0.0,0.0,97,0.00,,,0.00,WUHU21623XXSP,2012-12-24 10:23:00,
2012-12-24 02:28:00,36.0,35.1,29.84,ENE,67,0.0,0.0,97,0.00,,,0.00,WUHU21623XXSP,2012-12-24 10:28:00,
2012-12-24 02:33:00,36.0,35.1,29.84,ENE,67,0.0,0.0,97,0.00,,,0.00,WUHU21623XXSP,2012-12-24 10:33:00,
2012-12-24 02:38:00,36.0,35.1,29.84,ENE,67,0.0,0.0,97,0.00,,,0.00,WUHU21623XXSP,2012-12-24 10:38:00,
2012-12-24 02:43:00,36.1,35.3,29.85,ENE,67,0.0,0.0,97,0.00,,,0.00,WUHU21623XXSP,2012-12-24 10:43:00,
2012-12-24 02:48:00,36.0,35.3,29.85,ENE,67,0.0,0.0,97,0.00,,,0.00,WUHU21623XXSP,2012-12-24 10:48:00,
2012-12-24 02:53:00,36.0,35.1,29.85,ENE,67,0.0,0.0,97,0.00,,,0.00,WUHU21623XXSP,2012-12-24 10:53:00,
2012-12-24 02:58:00,36.0,35.1,29.86,ENE,67,0.0,0.0,97,0.00,,,0.00,WUHU21623XXSP,2012-12-24 10:58:00,
2012-12-24 03:03:00,36.0,35.1,29.86,ENE,67,0.0,0.0,97,0.00,,,0.00,WUHU21623XXSP,2012-12-24 11:03:00,
2012-12-24 03:08:00,36.0,35.1,29.86,ENE,67,0.0,0.0,97,0.00,,,0.00,WUHU21623XXSP,2012-12-24 11:08:00,
2012-12-24 03:13:00,36.0,35.1,29.86,ENE,67,0.0,0.0,97,0.00,,,0.00,WUHU21623XXSP,2012-12-24 11:13:00,
2012-12-24 03:18:00,36.1,35.3,29.87,ENE,67,0.0,0.0,97,0.00,,,0.00,WUHU21623XXSP,2012-12-24 11:18:00,
2012-12-24 03:23:00,36.1,35.3,29.87,ENE,67,0.0,0.0,97,0.00,,,0.00,WUHU21623XXSP,2012-12-24 11:23:00,
2012-12-24 03:28:00,36.0,35.3,29.87,ENE,67,0.0,0.0,97,0.00,,,0.00,WUHU21623XXSP,2012-12-24 11:28:00,
2012-12-24 03:33:00,36.0,35.3,29.87,ENE,67,0.0,0.0,97,0.00,,,0.00,WUHU21623XXSP,2012-12-24 11:33:00,
2012-12-24 03:38:00,36.1,35.1,29.87,ENE,67,0.0,0.0,97,0.00,,,0.00,WUHU21623XXSP,2012-12-24 11:38:00,
2012-12-24 03:43:00,36.1,35.3,29.88,ENE,67,0.0,0.0,97,0.00,,,0.00,WUHU21623XXSP,2012-12-24 11:43:00,
2012-12-24 03:48:00,36.1,35.3,29.88,ENE,67,0.0,0.0,97,0.00,,,0.00,WUHU21623XXSP,2012-12-24 11:48:00,
2012-12-24 03:53:00,36.1,35.3,29.88,ENE,67,0.0,0.0,97,0.00,,,0.00,WUHU21623XXSP,2012-12-24 11:53:00,
2012-12-24 03:58:00,36.1,35.3,29.89,SE,135,0.0,0.0,97,0.00,,,0.00,WUHU21623XXSP,2012-12-24 11:58:00,
2012-12-24 04:03:00,36.1,35.3,29.89,SE,135,0.0,0.0,97,0.00,,,0.00,WUHU21623XXSP,2012-12-24 12:03:00,
2012-12-24 04:08:00,36.1,35.3,29.89,NE,45,0.0,0.0,97,0.00,,,0.00,WUHU21623XXSP,2012-12-24 12:08:00,
2012-12-24 04:13:00,36.1,35.3,29.89,NE,45,0.0,0.0,97,0.00,,,0.00,WUHU21623XXSP,2012-12-24 12:13:00,
2012-12-24 04:18:00,36.1,35.3,29.89,NE,45,0.0,0.0,97,0.00,,,0.00,WUHU21623XXSP,2012-12-24 12:18:00,
2012-12-24 04:23:00,36.1,35.3,29.90,NE,45,0.0,0.0,97,0.00,,,0.00,WUHU21623XXSP,2012-12-24 12:23:00,
2012-12-24 04:28:00,36.3,35.5,29.90,NE,45,0.0,0.0,97,0.00,,,0.00,WUHU21623XXSP,2012-12-24 12:28:00,
2012-12-24 04:33:00,36.3,35.5,29.91,NE,45,0.0,0.0,97,0.00,,,0.00,WUHU21623XXSP,2012-12-24 12:33:00,
2012-12-24 04:38:00,36.3,35.5,29.90,NE,45,0.0,0.0,97,0.00,,,0.00,WUHU21623XXSP,2012-12-24 12:38:00,
2012-12-24 04:43:00,36.3,35.5,29.91,NE,45,0.0,0.0,97,0.00,,,0.00,WUHU21623XXSP,2012-12-24 12:43:00,
2012-12-24 04:48:00,36.3,35.5,29.91,NE,45,0.0,0.0,97,0.00,,,0.00,WUHU21623XXSP,2012-12-24 12:48:00,
2012-12-24 04:53:00,36.3,35.5,29.91,NE,45,0.0,0.0,97,0.00,,,0.00,WUHU21623XXSP,2012-12-24 12:53:00,
2012-12-24 04:58:00,36.3,35.5,29.91,NE,45,0.0,0.0,97,0.00,,,0.00,WUHU21623XXSP,2012-12-24 12:58:00,
2012-12-24 05:03:00,36.3,35.5,29.91,NE,45,0.0,0.0,97,0.00,,,0.00,WUHU21623XXSP,2012-12-24 13:03:00,
2012-12-24 05:08:00,36.3,35.5,29.92,NE,45,0.0,0.0,97,0.00,,,0.00,WUHU21623XXSP,2012-12-24 13:08:00,
2012-12-24 05:13:00,36.3,35.8,29.92,NE,45,0.0,0.0,98,0.00,,,0.00,WUHU21623XXSP,2012-12-24 13:13:00,
2012-12-24 05:18:00,36.3,35.8,29.92,NE,45,0.0,0.0,98,0.00,,,0.00,WUHU21623XXSP,2012-12-24 13:18:00,
2012-12-24 05:23:00,36.3,35.8,29.92,NE,45,0.0,0.0,98,0.00,,,0.00,WUHU21623XXSP,2012-12-24 13:23:00,
2012-12-24 05:28:00,36.3,35.8,29.93,NE,45,0.0,0.0,98,0.00,,,0.00,WUHU21623XXSP,2012-12-24 13:28:00,
2012-12-24 05:33:00,36.3,35.5,29.93,NE,45,0.0,0.0,98,0.00,,,0.00,WUHU21623XXSP,2012-12-24 13:33:00,
2012-12-24 05:38:00,36.3,35.8,29.94,NE,45,0.0,0.0,98,0.00,,,0.00,WUHU21623XXSP,2012-12-24 13:38:00,
2012-12-24 05:43:00,36.3,35.8,29.94,NE,45,0.0,0.0,98,0.00,,,0.00,WUHU21623XXSP,2012-12-24 13:43:00,
2012-12-24 05:48:00,36.3,35.8,29.94,NE,45,0.0,0.0,98,0.00,,,0.00,WUHU21623XXSP,2012-12-24 13:48:00,
2012-12-24 05:53:00,36.3,35.8,29.94,NE,45,0.0,0.0,98,0.00,,,0.00,WUHU21623XXSP,2012-12-24 13:53:00,
2012-12-24 05:58:00,36.3,35.8,29.94,NE,45,0.0,0.0,98,0.00,,,0.00,WUHU21623XXSP,2012-12-24 13:58:00,
2012-12-24 06:03:00,36.3,35.8,29.94,NE,45,0.0,0.0,98,0.00,,,0.00,WUHU21623XXSP,2012-12-24 14:03:00,
2012-12-24 06:08:00,36.3,35.8,29.94,NE,45,0.0,0.0,98,0.00,,,0.00,WUHU21623XXSP,2012-12-24 14:08:00,
2012-12-24 06:13:00,36.5,36.0,29.95,NE,45,0.0,0.0,98,0.00,,,0.00,WUHU21623XXSP,2012-12-24 14:13:00,
2012-12-24 06:18:00,36.5,36.0,29.95,NE,45,0.0,0.0,98,0.00,,,0.00,WUHU21623XXSP,2012-12-24 14:18:00,
2012-12-24 06:23:00,36.5,36.0,29.96,NE,45,0.0,0.0,98,0.00,,,0.00,WUHU21623XXSP,2012-12-24 14:23:00,
2012-12-24 06:28:00,36.5,36.0,29.96,NE,45,0.0,0.0,98,0.00,,,0.00,WUHU21623XXSP,2012-12-24 14:28:00,
2012-12-24 06:33:00,36.5,36.0,29.96,NE,45,0.0,0.0,98,0.00,,,0.00,WUHU21623XXSP,2012-12-24 14:33:00,
2012-12-24 06:38:00,36.5,36.0,29.96,NE,45,0.0,0.0,98,0.00,,,0.00,WUHU21623XXSP,2012-12-24 14:38:00,
2012-12-24 06:43:00,36.7,36.1,29.96,NE,45,0.0,0.0,98,0.00,,,0.00,WUHU21623XXSP,2012-12-24 14:43:00,
2012-12-24 06:48:00,36.7,36.1,29.97,NE,45,0.0,0.0,98,0.00,,,0.00,WUHU21623XXSP,2012-12-24 14:48:00,
2012-12-24 06:53:00,36.7,36.1,29.97,NE,45,0.0,0.0,98,0.00,,,0.00,WUHU21623XXSP,2012-12-24 14:53:00,
2012-12-24 06:58:00,36.7,36.1,29.97,NE,45,0.0,0.0,98,0.00,,,0.00,WUHU21623XXSP,2012-12-24 14:58:00,
2012-12-24 07:03:00,36.7,36.1,29.97,NE,45,0.0,0.0,98,0.00,,,0.00,WUHU21623XXSP,2012-12-24 15:03:00,
2012-12-24 07:08:00,36.7,36.1,29.97,NE,45,0.0,0.0,98,0.00,,,0.00,WUHU21623XXSP,2012-12-24 15:08:00,
2012-12-24 07:13:00,36.7,36.1,29.97,NE,45,0.0,0.0,98,0.00,,,0.00,WUHU21623XXSP,2012-12-24 15:13:00,
2012-12-24 07:18:00,36.7,36.1,29.98,NE,45,0.0,0.0,98,0.00,,,0.00,WUHU21623XXSP,2012-12-24 15:18:00,
2012-12-24 07:23:00,36.7,36.1,29.97,NE,45,0.0,0.0,98,0.00,,,0.00,WUHU21623XXSP,2012-12-24 15:23:00,
2012-12-24 07:28:00,36.7,36.1,29.98,NE,45,0.0,0.0,98,0.00,,,0.00,WUHU21623XXSP,2012-12-24 15:28:00,
2012-12-24 07:33:00,36.7,36.1,29.98,NE,45,0.0,0.0,98,0.00,,,0.00,WUHU21623XXSP,2012-12-24 15:33:00,
2012-12-24 07:38:00,36.7,36.1,29.98,NE,45,0.0,0.0,98,0.00,,,0.00,WUHU21623XXSP,2012-12-24 15:38:00,
2012-12-24 07:43:00,36.9,36.3,29.99,NE,45,0.0,0.0,98,0.00,,,0.00,WUHU21623XXSP,2012-12-24 15:43:00,
2012-12-24 07:48:00,36.9,36.3,29.99,NE,45,0.0,0.0,98,0.00,,,0.00,WUHU21623XXSP,2012-12-24 15:48:00,
2012-12-24 07:53:00,36.9,36.3,29.99,NE,45,0.0,0.0,98,0.00,,,0.00,WUHU21623XXSP,2012-12-24 15:53:00,
2012-12-24 07:58:00,36.9,36.3,29.99,NE,45,0.0,0.0,98,0.00,,,0.00,WUHU21623XXSP,2012-12-24 15:58:00,
2012-12-24 08:03:00,37.0,36.5,29.99,NE,45,0.0,0.0,98,0.00,,,0.00,WUHU21623XXSP,2012-12-24 16:03:00,
2012-12-24 08:08:00,37.0,36.5,30.00,NE,45,0.0,0.0,98,0.00,,,0.00,WUHU21623XXSP,2012-12-24 16:08:00,
2012-12-24 08:13:00,37.0,36.5,30.00,NE,45,0.0,0.0,98,0.00,,,0.00,WUHU21623XXSP,2012-12-24 16:13:00,
2012-12-24 08:18:00,37.0,36.5,30.00,NE,45,0.0,0.0,98,0.00,,,0.00,WUHU21623XXSP,2012-12-24 16:18:00,
2012-12-24 08:23:00,37.0,36.5,30.01,NE,45,0.0,0.0,98,0.00,,,0.00,WUHU21623XXSP,2012-12-24 16:23:00,
2012-12-24 08:28:00,37.0,36.5,30.01,NE,45,0.0,0.0,98,0.00,,,0.00,WUHU21623XXSP,2012-12-24 16:28:00,
2012-12-24 08:33:00,37.0,36.5,30.01,NE,45,0.0,0.0,98,0.00,,,0.00,WUHU21623XXSP,2012-12-24 16:33:00,
2012-12-24 08:38:00,37.0,36.5,30.02,NE,45,0.0,0.0,98,0.00,,,0.00,WUHU21623XXSP,2012-12-24 16:38:00,
2012-12-24 08:43:00,37.0,36.5,30.02,NE,45,0.0,0.0,98,0.00,,,0.00,WUHU21623XXSP,2012-12-24 16:43:00,
2012-12-24 08:48:00,37.0,36.5,30.02,NE,45,0.0,0.0,98,0.00,,,0.00,WUHU21623XXSP,2012-12-24 16:48:00,
2012-12-24 08:53:00,37.2,36.5,30.03,NE,45,0.0,0.0,98,0.00,,,0.00,WUHU21623XXSP,2012-12-24 16:53:00,
2012-12-24 08:58:00,37.2,36.7,30.03,NE,45,0.0,0.0,98,0.00,,,0.00,WUHU21623XXSP,2012-12-24 16:58:00,
2012-12-24 09:03:00,37.2,36.7,30.03,NE,45,0.0,0.0,98,0.00,,,0.00,WUHU21623XXSP,2012-12-24 17:03:00,
2012-12-24 09:08:00,37.2,36.7,30.04,NE,45,0.0,0.0,98,0.00,,,0.00,WUHU21623XXSP,2012-12-24 17:08:00,
2012-12-24 09:13:00,37.2,36.7,30.04,NE,45,0.0,0.0,98,0.00,,,0.00,WUHU21623XXSP,2012-12-24 17:13:00,
2012-12-24 09:18:00,37.2,36.7,30.04,NE,45,0.0,0.0,98,0.00,,,0.00,WUHU21623XXSP,2012-12-24 17:18:00,
2012-12-24 09:23:00,37.4,36.9,30.04,NE,45,0.0,0.0,98,0.00,,,0.00,WUHU21623XXSP,2012-12-24 17:23:00,
2012-12-24 09:28:00,37.6,36.9,30.04,NE,45,0.0,0.0,98,0.00,,,0.00,WUHU21623XXSP,2012-12-24 17:28:00,
2012-12-24 09:33:00,37.6,37.0,30.05,NE,45,0.0,0.0,98,0.00,,,0.00,WUHU21623XXSP,2012-12-24 17:33:00,
2012-12-24 09:38:00,37.6,37.0,30.05,NE,45,0.0,0.0,98,0.00,,,0.00,WUHU21623XXSP,2012-12-24 17:38:00,
2012-12-24 09:43:00,37.8,37.2,30.06,NE,45,0.0,0.0,98,0.00,,,0.00,WUHU21623XXSP,2012-12-24 17:43:00,
2012-12-24 09:48:00,37.8,37.2,30.06,NE,45,0.0,0.0,98,0.00,,,0.00,WUHU21623XXSP,2012-12-24 17:48:00,
2012-12-24 09:53:00,37.9,37.4,30.05,NE,45,0.0,0.0,98,0.00,,,0.00,WUHU21623XXSP,2012-12-24 17:53:00,
2012-12-24 09:58:00,38.1,37.4,30.05,NE,45,0.0,0.0,98,0.00,,,0.00,WUHU21623XXSP,2012-12-24 17:58:00,
2012-12-24 10:03:00,38.1,37.6,30.05,ESE,112,0.0,0.0,98,0.00,,,0.00,WUHU21623XXSP,2012-12-24 18:03:00,
2012-12-24 10:08:00,38.5,37.9,30.06,NE,45,0.0,0.0,98,0.00,,,0.00,WUHU21623XXSP,2012-12-24 18:08:00,
2012-12-24 10:13:00,38.8,38.3,30.05,ENE,67,0.0,0.0,98,0.00,,,0.00,WUHU21623XXSP,2012-12-24 18:13:00,
2012-12-24 10:18:00,39.0,38.5,30.05,ENE,67,0.0,0.0,98,0.00,,,0.00,WUHU21623XXSP,2012-12-24 18:18:00,
2012-12-24 10:23:00,39.0,38.5,30.06,ESE,112,0.0,0.0,98,0.00,,,0.00,WUHU21623XXSP,2012-12-24 18:23:00,
2012-12-24 10:28:00,39.4,38.8,30.06,ESE,112,0.0,0.0,99,0.00,,,0.00,WUHU21623XXSP,2012-12-24 18:28:00,
2012-12-24 10:33:00,39.4,39.1,30.06,SSE,157,0.0,0.0,99,0.00,,,0.00,WUHU21623XXSP,2012-12-24 18:33:00,
2012-12-24 10:38:00,39.7,39.5,30.07,SE,135,0.0,0.0,99,0.00,,,0.00,WUHU21623XXSP,2012-12-24 18:38:00,
2012-12-24 10:43:00,39.9,39.6,30.07,SE,135,0.0,0.0,99,0.00,,,0.00,WUHU21623XXSP,2012-12-24 18:43:00,
2012-12-24 10:48:00,40.1,39.6,30.07,SE,135,0.0,0.0,99,0.00,,,0.00,WUHU21623XXSP,2012-12-24 18:48:00,
2012-12-24 10:53:00,40.1,39.8,30.07,SSE,157,0.0,0.0,99,0.00,,,0.00,WUHU21623XXSP,2012-12-24 18:53:00,
2012-12-24 10:58:00,40.3,39.7,30.07,SSE,157,0.0,0.0,98,0.00,,,0.00,WUHU21623XXSP,2012-12-24 18:58:00,
2012-12-24 11:03:00,40.3,39.7,30.08,SSE,157,0.0,0.0,98,0.00,,,0.00,WUHU21623XXSP,2012-12-24 19:03:00,
2012-12-24 11:08:00,40.3,39.7,30.07,SSE,157,0.0,0.0,98,0.00,,,0.00,WUHU21623XXSP,2012-12-24 19:08:00,
2012-12-24 11:13:00,40.6,40.1,30.08,SSE,157,0.0,0.0,98,0.00,,,0.00,WUHU21623XXSP,2012-12-24 19:13:00,
2012-12-24 11:18:00,40.8,40.3,30.08,SSE,157,0.0,0.0,98,0.00,,,0.00,WUHU21623XXSP,2012-12-24 19:18:00,
2012-12-24 11:23:00,40.8,40.3,30.08,SSE,157,0.0,0.0,98,0.00,,,0.00,WUHU21623XXSP,2012-12-24 19:23:00,
2012-12-24 11:28:00,41.0,40.3,30.08,SSE,157,0.0,0.0,98,0.00,,,0.00,WUHU21623XXSP,2012-12-24 19:28:00,
2012-12-24 11:33:00,40.8,40.3,30.08,SSE,157,0.0,0.0,98,0.00,,,0.00,WUHU21623XXSP,2012-12-24 19:33:00,
2012-12-24 11:38:00,40.8,40.3,30.08,SSE,157,0.0,0.0,98,0.00,,,0.00,WUHU21623XXSP,2012-12-24 19:38:00,
2012-12-24 11:43:00,40.8,40.3,30.08,SSE,157,0.0,0.0,98,0.00,,,0.00,WUHU21623XXSP,2012-12-24 19:43:00,
2012-12-24 11:48:00,40.8,40.3,30.09,SSE,157,0.0,0.0,98,0.00,,,0.00,WUHU21623XXSP,2012-12-24 19:48:00,
2012-12-24 11:53:00,41.0,40.5,30.09,SSE,157,0.0,0.0,98,0.00,,,0.00,WUHU21623XXSP,2012-12-24 19:53:00,
2012-12-24 11:58:00,41.0,40.3,30.08,SSE,157,0.0,0.0,98,0.00,,,0.00,WUHU21623XXSP,2012-12-24 19:58:00,
2012-12-24 12:03:00,41.2,40.5,30.09,SSE,157,0.0,0.0,98,0.00,,,0.00,WUHU21623XXSP,2012-12-24 20:03:00,
2012-12-24 12:08:00,41.2,40.6,30.09,SSE,157,0.0,0.0,98,0.00,,,0.00,WUHU21623XXSP,2012-12-24 20:08:00,
2012-12-24 12:13:00,41.2,40.6,30.09,SSE,157,0.0,0.0,98,0.00,,,0.00,WUHU21623XXSP,2012-12-24 20:13:00,
2012-12-24 12:18:00,41.2,40.6,30.09,SSE,157,0.0,0.0,98,0.00,,,0.00,WUHU21623XXSP,2012-12-24 20:18:00,
2012-12-24 12:23:00,41.4,40.8,30.09,SSE,157,0.0,0.0,98,0.00,,,0.00,WUHU21623XXSP,2012-12-24 20:23:00,
2012-12-24 12:28:00,41.2,40.6,30.10,SSE,157,0.0,0.0,98,0.00,,,0.00,WUHU21623XXSP,2012-12-24 20:28:00,
2012-12-24 12:33:00,41.2,40.6,30.10,SSE,157,0.0,0.0,98,0.00,,,0.00,WUHU21623XXSP,2012-12-24 20:33:00,
2012-12-24 12:38:00,41.2,40.6,30.09,SSE,157,0.0,0.0,98,0.00,,,0.00,WUHU21623XXSP,2012-12-24 20:38:00,
2012-12-24 12:43:00,41.2,40.6,30.09,SSE,157,0.0,0.0,98,0.00,,,0.00,WUHU21623XXSP,2012-12-24 20:43:00,
2012-12-24 12:48:00,41.2,40.6,30.10,SSE,157,0.0,0.0,98,0.00,,,0.00,WUHU21623XXSP,2012-12-24 20:48:00,
2012-12-24 12:53:00,41.5,41.0,30.10,SSE,157,0.0,0.0,98,0.00,,,0.00,WUHU21623XXSP,2012-12-24 20:53:00,
2012-12-24 12:58:00,41.7,41.2,30.10,ESE,112,0.0,0.0,98,0.00,,,0.00,WUHU21623XXSP,2012-12-24 20:58:00,
2012-12-24 13:03:00,41.9,41.4,30.10,East,90,0.0,0.0,98,0.00,,,0.00,WUHU21623XXSP,2012-12-24 21:03:00,
2012-12-24 13:08:00,41.7,41.2,30.10,NE,45,0.0,0.0,98,0.00,,,0.00,WUHU21623XXSP,2012-12-24 21:08:00,
2012-12-24 13:13:00,41.7,41.2,30.10,NE,45,0.0,0.0,98,0.00,,,0.00,WUHU21623XXSP,2012-12-24 21:13:00,
2012-12-24 13:18:00,41.7,41.2,30.10,NE,45,0.0,0.0,98,0.00,,,0.00,WUHU21623XXSP,2012-12-24 21:18:00,
2012-12-24 13:23:00,41.7,41.2,30.10,NE,45,0.0,0.0,98,0.00,,,0.00,WUHU21623XXSP,2012-12-24 21:23:00,
2012-12-24 13:28:00,41.7,41.2,30.10,NE,45,0.0,0.0,98,0.00,,,0.00,WUHU21623XXSP,2012-12-24 21:28:00,
2012-12-24 13:33:00,41.7,41.2,30.10,NE,45,0.0,0.0,98,0.00,,,0.00,WUHU21623XXSP,2012-12-24 21:33:00,
2012-12-24 13:38:00,41.7,41.2,30.10,NE,45,0.0,0.0,97,0.00,,,0.00,WUHU21623XXSP,2012-12-24 21:38:00,
2012-12-24 13:43:00,41.7,40.9,30.11,NE,45,0.0,0.0,97,0.00,,,0.00,WUHU21623XXSP,2012-12-24 21:43:00,
2012-12-24 13:48:00,41.9,41.1,30.10,NE,45,0.0,0.0,97,0.00,,,0.00,WUHU21623XXSP,2012-12-24 21:48:00,
2012-12-24 13:53:00,42.1,41.3,30.10,NE,45,0.0,0.0,97,0.00,,,0.00,WUHU21623XXSP,2012-12-24 21:53:00,
2012-12-24 13:58:00,42.1,41.3,30.11,NE,45,0.0,0.0,97,0.00,,,0.00,WUHU21623XXSP,2012-12-24 21:58:00,
2012-12-24 14:03:00,42.1,41.3,30.11,NE,45,0.0,0.0,97,0.00,,,0.00,WUHU21623XXSP,2012-12-24 22:03:00,
2012-12-24 14:08:00,42.1,41.3,30.11,East,90,0.0,0.0,97,0.00,,,0.00,WUHU21623XXSP,2012-12-24 22:08:00,
2012-12-24 14:13:00,41.9,41.1,30.11,East,90,0.0,0.0,97,0.00,,,0.00,WUHU21623XXSP,2012-12-24 22:13:00,
2012-12-24 14:18:00,41.7,40.9,30.11,East,90,0.0,0.0,97,0.00,,,0.00,WUHU21623XXSP,2012-12-24 22:18:00,
2012-12-24 14:23:00,41.7,40.9,30.11,East,90,0.0,0.0,97,0.00,,,0.00,WUHU21623XXSP,2012-12-24 22:23:00,
2012-12-24 14:28:00,41.7,40.9,30.11,East,90,0.0,0.0,97,0.00,,,0.00,WUHU21623XXSP,2012-12-24 22:28:00,
2012-12-24 14:33:00,41.5,40.7,30.10,East,90,0.0,0.0,97,0.00,,,0.00,WUHU21623XXSP,2012-12-24 22:33:00,
2012-12-24 14:38:00,41.5,40.7,30.10,East,90,0.0,0.0,97,0.00,,,0.00,WUHU21623XXSP,2012-12-24 22:38:00,
2012-12-24 14:43:00,41.5,40.7,30.11,East,90,0.0,0.0,97,0.00,,,0.00,WUHU21623XXSP,2012-12-24 22:43:00,
2012-12-24 14:48:00,41.4,40.5,30.11,East,90,0.0,0.0,97,0.00,,,0.00,WUHU21623XXSP,2012-12-24 22:48:00,
2012-12-24 14:53:00,41.4,40.5,30.11,East,90,0.0,0.0,97,0.00,,,0.00,WUHU21623XXSP,2012-12-24 22:53:00,
2012-12-24 14:58:00,41.4,40.5,30.11,East,90,0.0,0.0,97,0.00,,,0.00,WUHU21623XXSP,2012-12-24 22:58:00,
2012-12-24 15:03:00,41.2,40.4,30.11,East,90,0.0,0.0,97,0.00,,,0.00,WUHU21623XXSP,2012-12-24 23:03:00,
2012-12-24 15:08:00,41.2,40.4,30.11,East,90,0.0,0.0,97,0.00,,,0.00,WUHU21623XXSP,2012-12-24 23:08:00,
2012-12-24 15:13:00,41.2,40.4,30.11,East,90,0.0,0.0,97,0.00,,,0.00,WUHU21623XXSP,2012-12-24 23:13:00,
2012-12-24 15:18:00,41.0,40.2,30.11,East,90,0.0,0.0,97,0.00,,,0.00,WUHU21623XXSP,2012-12-24 23:18:00,
2012-12-24 15:23:00,41.0,40.2,30.11,East,90,0.0,0.0,97,0.00,,,0.00,WUHU21623XXSP,2012-12-24 23:23:00,
2012-12-24 15:28:00,40.8,40.0,30.11,East,90,0.0,0.0,97,0.00,,,0.00,WUHU21623XXSP,2012-12-24 23:28:00,
2012-12-24 15:33:00,40.8,40.0,30.11,East,90,0.0,0.0,97,0.00,,,0.00,WUHU21623XXSP,2012-12-24 23:33:00,
2012-12-24 15:38:00,40.8,40.0,30.11,East,90,0.0,0.0,97,0.00,,,0.00,WUHU21623XXSP,2012-12-24 23:38:00,
2012-12-24 15:43:00,40.8,40.0,30.11,East,90,0.0,0.0,97,0.00,,,0.00,WUHU21623XXSP,2012-12-24 23:43:00,
2012-12-24 15:48:00,40.6,39.8,30.11,East,90,0.0,0.0,97,0.00,,,0.00,WUHU21623XXSP,2012-12-24 23:48:00,
2012-12-24 15:53:00,40.6,40.1,30.11,East,90,0.0,0.0,98,0.00,,,0.00,WUHU21623XXSP,2012-12-24 23:53:00,
2012-12-24 15:58:00,40.5,39.6,30.10,East,90,0.0,0.0,97,0.00,,,0.00,WUHU21623XXSP,2012-12-24 23:58:00,
2012-12-24 16:03:00,40.5,39.6,30.10,East,90,0.0,0.0,97,0.00,,,0.00,WUHU21623XXSP,2012-12-25 00:03:00,
2012-12-24 16:08:00,40.3,39.5,30.10,East,90,0.0,0.0,97,0.00,,,0.00,WUHU21623XXSP,2012-12-25 00:08:00,
2012-12-24 16:13:00,40.3,39.5,30.10,East,90,0.0,0.0,97,0.00,,,0.00,WUHU21623XXSP,2012-12-25 00:13:00,
2012-12-24 16:18:00,40.1,39.3,30.11,East,90,0.0,0.0,97,0.00,,,0.00,WUHU21623XXSP,2012-12-25 00:18:00,
2012-12-24 16:23:00,39.9,39.1,30.11,East,90,0.0,0.0,97,0.00,,,0.00,WUHU21623XXSP,2012-12-25 00:23:00,
2012-12-24 16:28:00,39.9,39.1,30.11,East,90,0.0,0.0,97,0.00,,,0.00,WUHU21623XXSP,2012-12-25 00:28:00,
2012-12-24 16:33:00,39.9,39.1,30.11,East,90,0.0,0.0,97,0.00,,,0.00,WUHU21623XXSP,2012-12-25 00:33:00,
2012-12-24 16:38:00,39.7,38.9,30.11,East,90,0.0,0.0,97,0.00,,,0.00,WUHU21623XXSP,2012-12-25 00:38:00,
2012-12-24 16:43:00,39.7,38.9,30.11,East,90,0.0,0.0,97,0.00,,,0.00,WUHU21623XXSP,2012-12-25 00:43:00,
2012-12-24 16:48:00,39.6,38.8,30.11,East,90,0.0,0.0,97,0.00,,,0.00,WUHU21623XXSP,2012-12-25 00:48:00,
2012-12-24 16:53:00,39.4,38.6,30.11,East,90,0.0,0.0,97,0.00,,,0.00,WUHU21623XXSP,2012-12-25 00:53:00,
2012-12-24 16:58:00,39.4,38.6,30.11,East,90,0.0,0.0,97,0.00,,,0.00,WUHU21623XXSP,2012-12-25 00:58:00,
2012-12-24 17:03:00,39.0,38.2,30.11,East,90,0.0,0.0,97,0.00,,,0.00,WUHU21623XXSP,2012-12-25 01:03:00,
2012-12-24 17:08:00,39.0,38.2,30.10,East,90,0.0,0.0,97,0.00,,,0.00,WUHU21623XXSP,2012-12-25 01:08:00,
2012-12-24 17:13:00,38.8,38.0,30.11,East,90,0.0,0.0,97,0.00,,,0.00,WUHU21623XXSP,2012-12-25 01:13:00,
2012-12-24 17:18:00,38.8,38.0,30.11,East,90,0.0,0.0,97,0.00,,,0.00,WUHU21623XXSP,2012-12-25 01:18:00,
2012-12-24 17:23:00,38.5,37.7,30.11,East,90,0.0,0.0,97,0.00,,,0.00,WUHU21623XXSP,2012-12-25 01:23:00,
2012-12-24 17:28:00,38.5,37.7,30.11,East,90,0.0,0.0,97,0.00,,,0.00,WUHU21623XXSP,2012-12-25 01:28:00,
2012-12-24 17:33:00,38.5,37.7,30.11,East,90,0.0,0.0,97,0.00,,,0.00,WUHU21623XXSP,2012-12-25 01:33:00,
2012-12-24 17:38:00,38.5,37.7,30.11,East,90,0.0,0.0,97,0.00,,,0.00,WUHU21623XXSP,2012-12-25 01:38:00,
2012-12-24 17:43:00,38.5,37.7,30.11,East,90,0.0,0.0,97,0.00,,,0.00,WUHU21623XXSP,2012-12-25 01:43:00,
2012-12-24 17:48:00,38.5,37.7,30.11,East,90,0.0,0.0,97,0.00,,,0.00,WUHU21623XXSP,2012-12-25 01:48:00,
2012-12-24 17:53:00,38.5,37.7,30.11,East,90,0.0,0.0,97,0.00,,,0.00,WUHU21623XXSP,2012-12-25 01:53:00,
2012-12-24 17:58:00,38.5,37.7,30.11,East,90,0.0,0.0,97,0.00,,,0.00,WUHU21623XXSP,2012-12-25 01:58:00,
2012-12-24 18:03:00,38.5,37.7,30.11,East,90,0.0,0.0,97,0.00,,,0.00,WUHU21623XXSP,2012-12-25 02:03:00,
2012-12-24 18:08:00,38.5,37.7,30.11,East,90,0.0,0.0,97,0.00,,,0.00,WUHU21623XXSP,2012-12-25 02:08:00,
2012-12-24 18:13:00,38.5,37.7,30.11,East,90,0.0,0.0,97,0.00,,,0.00,WUHU21623XXSP,2012-12-25 02:13:00,
2012-12-24 18:18:00,38.5,37.7,30.10,East,90,0.0,0.0,97,0.00,,,0.00,WUHU21623XXSP,2012-12-25 02:18:00,
2012-12-24 18:23:00,38.5,37.7,30.10,East,90,0.0,0.0,97,0.00,,,0.00,WUHU21623XXSP,2012-12-25 02:23:00,
2012-12-24 18:28:00,38.5,37.7,30.10,East,90,0.0,0.0,97,0.00,,,0.00,WUHU21623XXSP,2012-12-25 02:28:00,
2012-12-24 18:33:00,38.5,37.7,30.10,East,90,0.0,0.0,97,0.00,,,0.00,WUHU21623XXSP,2012-12-25 02:33:00,
2012-12-24 18:38:00,38.5,37.9,30.10,East,90,0.0,0.0,97,0.00,,,0.00,WUHU21623XXSP,2012-12-25 02:38:00,
2012-12-24 18:43:00,38.5,37.7,30.10,East,90,0.0,0.0,97,0.00,,,0.00,WUHU21623XXSP,2012-12-25 02:43:00,
2012-12-24 18:48:00,38.5,37.7,30.09,East,90,0.0,0.0,97,0.00,,,0.00,WUHU21623XXSP,2012-12-25 02:48:00,
2012-12-24 18:53:00,38.3,37.8,30.09,East,90,0.0,0.0,98,0.00,,,0.00,WUHU21623XXSP,2012-12-25 02:53:00,
2012-12-24 18:58:00,38.3,37.8,30.09,East,90,0.0,0.0,98,0.00,,,0.00,WUHU21623XXSP,2012-12-25 02:58:00,
2012-12-24 19:03:00,38.3,37.8,30.09,East,90,0.0,0.0,98,0.00,,,0.00,WUHU21623XXSP,2012-12-25 03:03:00,
2012-12-24 19:08:00,38.3,37.8,30.09,ESE,112,0.0,0.0,98,0.00,,,0.00,WUHU21623XXSP,2012-12-25 03:08:00,
2012-12-24 19:13:00,38.3,37.8,30.09,ESE,112,0.0,0.0,98,0.00,,,0.00,WUHU21623XXSP,2012-12-25 03:13:00,
2012-12-24 19:18:00,38.1,37.6,30.09,ESE,112,0.0,0.0,98,0.00,,,0.00,WUHU21623XXSP,2012-12-25 03:18:00,
2012-12-24 19:23:00,38.1,37.6,30.08,ESE,112,0.0,0.0,98,0.00,,,0.00,WUHU21623XXSP,2012-12-25 03:23:00,
2012-12-24 19:28:00,38.1,37.6,30.09,ESE,112,0.0,0.0,98,0.00,,,0.00,WUHU21623XXSP,2012-12-25 03:28:00,
2012-12-24 19:33:00,38.1,37.6,30.09,ESE,112,0.0,0.0,98,0.00,,,0.00,WUHU21623XXSP,2012-12-25 03:33:00,
2012-12-24 19:38:00,38.1,37.6,30.08,ESE,112,0.0,0.0,98,0.00,,,0.00,WUHU21623XXSP,2012-12-25 03:38:00,
2012-12-24 19:43:00,38.1,37.6,30.08,ESE,112,0.0,0.0,98,0.00,,,0.00,WUHU21623XXSP,2012-12-25 03:43:00,
2012-12-24 19:48:00,37.9,37.6,30.08,ESE,112,0.0,0.0,98,0.00,,,0.00,WUHU21623XXSP,2012-12-25 03:48:00,
2012-12-24 19:53:00,37.9,37.4,30.08,ESE,112,0.0,0.0,98,0.00,,,0.00,WUHU21623XXSP,2012-12-25 03:53:00,
2012-12-24 19:58:00,37.9,37.4,30.07,ESE,112,0.0,0.0,98,0.00,,,0.00,WUHU21623XXSP,2012-12-25 03:58:00,
2012-12-24 20:03:00,37.9,37.4,30.07,ESE,112,0.0,0.0,98,0.00,,,0.00,WUHU21623XXSP,2012-12-25 04:03:00,
2012-12-24 20:08:00,37.9,37.4,30.06,ESE,112,0.0,0.0,98,0.00,,,0.00,WUHU21623XXSP,2012-12-25 04:08:00,
2012-12-24 20:13:00,37.9,37.4,30.06,ESE,112,0.0,0.0,98,0.00,,,0.00,WUHU21623XXSP,2012-12-25 04:13:00,
2012-12-24 20:18:00,37.8,37.4,30.06,ESE,112,0.0,0.0,98,0.00,,,0.00,WUHU21623XXSP,2012-12-25 04:18:00,
2012-12-24 20:23:00,37.9,37.4,30.06,ESE,112,0.0,0.0,98,0.00,,,0.00,WUHU21623XXSP,2012-12-25 04:23:00,
2012-12-24 20:28:00,37.8,37.2,30.05,ESE,112,0.0,0.0,98,0.00,,,0.00,WUHU21623XXSP,2012-12-25 04:28:00,
2012-12-24 20:33:00,37.8,37.2,30.05,ESE,112,0.0,0.0,98,0.00,,,0.00,WUHU21623XXSP,2012-12-25 04:33:00,
2012-12-24 20:38:00,37.6,37.2,30.05,ESE,112,0.0,0.0,98,0.00,,,0.00,WUHU21623XXSP,2012-12-25 04:38:00,
2012-12-24 20:43:00,37.6,37.0,30.05,ESE,112,0.0,0.0,98,0.00,,,0.00,WUHU21623XXSP,2012-12-25 04:43:00,
2012-12-24 20:48:00,37.6,37.0,30.06,ESE,112,0.0,0.0,98,0.00,,,0.00,WUHU21623XXSP,2012-12-25 04:48:00,
2012-12-24 20:53:00,37.6,37.0,30.06,ESE,112,0.0,0.0,98,0.00,,,0.00,WUHU21623XXSP,2012-12-25 04:53:00,
2012-12-24 20:58:00,37.6,37.0,30.06,ESE,112,0.0,0.0,98,0.00,,,0.00,WUHU21623XXSP,2012-12-25 04:58:00,
2012-12-24 21:00:00,37.6,37.0,30.06,ESE,112,0.0,0.0,98,0.00,,,0.00,WUHU21623XXSP,2012-12-25 05:00:00,
2012-12-24 21:01:00,37.6,37.0,30.06,ESE,112,0.0,0.0,98,0.00,,,0.00,WUHU21623XXSP,2012-12-25 05:01:00,
2012-12-24 21:03:00,37.4,37.0,30.05,ESE,112,0.0,0.0,98,0.00,,,0.00,WUHU21623XXSP,2012-12-25 05:03:00,
2012-12-24 21:08:00,37.6,36.9,30.06,ESE,112,0.0,0.0,98,0.00,,,0.00,WUHU21623XXSP,2012-12-25 05:08:00,
2012-12-24 21:13:00,37.4,37.0,30.06,ESE,112,0.0,0.0,98,0.00,,,0.00,WUHU21623XXSP,2012-12-25 05:13:00,
2012-12-24 21:18:00,37.6,37.0,30.07,ESE,112,0.0,0.0,98,0.00,,,0.00,WUHU21623XXSP,2012-12-25 05:18:00,
2012-12-24 21:23:00,37.6,37.0,30.06,ESE,112,0.0,0.0,98,0.00,,,0.00,WUHU21623XXSP,2012-12-25 05:23:00,
2012-12-24 21:28:00,37.6,37.0,30.06,ESE,112,0.0,0.0,98,0.00,,,0.00,WUHU21623XXSP,2012-12-25 05:28:00,
2012-12-24 21:33:00,37.6,37.0,30.06,ESE,112,0.0,0.0,98,0.00,,,0.00,WUHU21623XXSP,2012-12-25 05:33:00,
2012-12-24 21:38:00,37.6,36.9,30.06,ESE,112,0.0,0.0,98,0.00,,,0.00,WUHU21623XXSP,2012-12-25 05:38:00,
2012-12-24 21:43:00,37.4,36.9,30.06,ESE,112,0.0,0.0,98,0.00,,,0.00,WUHU21623XXSP,2012-12-25 05:43:00,
2012-12-24 21:48:00,37.2,36.7,30.06,ESE,112,0.0,0.0,98,0.00,,,0.00,WUHU21623XXSP,2012-12-25 05:48:00,
2012-12-24 21:53:00,37.2,36.7,30.05,ESE,112,0.0,0.0,98,0.00,,,0.00,WUHU21623XXSP,2012-12-25 05:53:00,
2012-12-24 21:58:00,37.2,36.7,30.06,ESE,112,0.0,0.0,98,0.00,,,0.00,WUHU21623XXSP,2012-12-25 05:58:00,
2012-12-24 22:03:00,37.2,36.7,30.06,NE,45,0.0,0.0,98,0.00,,,0.00,WUHU21623XXSP,2012-12-25 06:03:00,
2012-12-24 22:08:00,37.0,36.5,30.05,NE,45,0.0,0.0,98,0.00,,,0.00,WUHU21623XXSP,2012-12-25 06:08:00,
2012-12-24 22:13:00,37.0,36.5,30.05,NE,45,0.0,0.0,98,0.00,,,0.00,WUHU21623XXSP,2012-12-25 06:13:00,
2012-12-24 22:18:00,36.9,36.3,30.05,NE,45,0.0,0.0,98,0.00,,,0.00,WUHU21623XXSP,2012-12-25 06:18:00,
2012-12-24 22:23:00,36.9,36.3,30.05,NE,45,0.0,0.0,98,0.00,,,0.00,WUHU21623XXSP,2012-12-25 06:23:00,
2012-12-24 22:28:00,36.9,36.3,30.05,NE,45,0.0,0.0,98,0.00,,,0.00,WUHU21623XXSP,2012-12-25 06:28:00,
2012-12-24 22:33:00,36.7,36.1,30.05,NE,45,0.0,0.0,98,0.00,,,0.00,WUHU21623XXSP,2012-12-25 06:33:00,
2012-12-24 22:38:00,36.7,36.1,30.05,NE,45,0.0,0.0,98,0.00,,,0.00,WUHU21623XXSP,2012-12-25 06:38:00,
2012-12-24 22:43:00,36.5,36.0,30.06,NE,45,0.0,0.0,98,0.00,,,0.00,WUHU21623XXSP,2012-12-25 06:43:00,
2012-12-24 22:48:00,36.5,36.0,30.05,NE,45,0.0,0.0,98,0.00,,,0.00,WUHU21623XXSP,2012-12-25 06:48:00,
2012-12-24 22:53:00,36.3,35.8,30.05,NE,45,0.0,0.0,98,0.00,,,0.00,WUHU21623XXSP,2012-12-25 06:53:00,
2012-12-24 22:58:00,36.3,35.8,30.05,NE,45,0.0,0.0,98,0.00,,,0.00,WUHU21623XXSP,2012-12-25 06:58:00,
2012-12-24 23:03:00,36.3,35.8,30.05,East,90,0.0,0.0,98,0.00,,,0.00,WUHU21623XXSP,2012-12-25 07:03:00,
2012-12-24 23:08:00,36.1,35.6,30.05,ENE,67,0.0,0.0,98,0.00,,,0.00,WUHU21623XXSP,2012-12-25 07:08:00,
2012-12-24 23:13:00,36.1,35.6,30.04,ENE,67,0.0,0.0,98,0.00,,,0.00,WUHU21623XXSP,2012-12-25 07:13:00,
2012-12-24 23:18:00,36.0,35.4,30.04,ENE,67,0.0,0.0,98,0.00,,,0.00,WUHU21623XXSP,2012-12-25 07:18:00,
2012-12-24 23:23:00,36.0,35.4,30.03,ENE,67,0.0,0.0,98,0.00,,,0.00,WUHU21623XXSP,2012-12-25 07:23:00,
2012-12-24 23:28:00,35.8,35.4,30.03,ENE,67,0.0,0.0,98,0.00,,,0.00,WUHU21623XXSP,2012-12-25 07:28:00,
2012-12-24 23:33:00,35.8,35.2,30.03,ENE,67,0.0,0.0,98,0.00,,,0.00,WUHU21623XXSP,2012-12-25 07:33:00,
2012-12-24 23:38:00,35.8,35.2,30.03,ENE,67,0.0,0.0,98,0.00,,,0.00,WUHU21623XXSP,2012-12-25 07:38:00,
2012-12-24 23:43:00,35.8,35.2,30.02,ENE,67,0.0,0.0,98,0.00,,,0.00,WUHU21623XXSP,2012-12-25 07:43:00,
2012-12-24 23:48:00,35.6,35.1,30.02,ENE,67,0.0,0.0,98,0.00,,,0.00,WUHU21623XXSP,2012-12-25 07:48:00,
2012-12-24 23:53:00,35.4,34.9,30.02,ENE,67,0.0,0.0,98,0.00,,,0.00,WUHU21623XXSP,2012-12-25 07:53:00,
2012-12-24 23:58:00,35.4,34.9,30.02,ENE,67,0.0,0.0,98,0.00,,,0.00,WUHU21623XXSP,2012-12-25 07:58:00,